Tracking 18980 objects as of 21-Feb-2018
HD Live streaming from Space Station
objects crossing your sky now

NOAA 16 DEB

Track NOAA 16 DEB now!
10-day predictions


NORAD ID: 42425
Int'l Code: 2000-055TV
Perigee: 857.5 km
Apogee: 903.3 km
Inclination: 98.9 °
Period: 102.4 minutes
Semi major axis: 7251 km
RCS: Unknown
Launch date: September 21, 2000
Source: United States (US)
Launch site: AIR FORCE WESTERN TEST RANGE (AFWTR)

Note: This is SATELLITE DEBRIS
aabbcc
Your satellite tracking list
Your tracking list is empty




NASA's NSSDC Master Catalog

Two Line Element Set (TLE):
1 42425U 00055TV  18050.40983164 +.00000618 +00000-0 +40198-3 0  9996
2 42425 098.8787 117.6375 0031614 162.5262 197.7001 14.05947075078401
Source of the keplerian elements: AFSPC